Starlink 2408

operational
NORAD ID: 47823 Int'l Des: 2021-018 Owner: SPXS Country: US Constellation: starlink
LEOCIRCULARSTARLINK_TYPE

About Starlink 2408

Description loading...

Live Position

Loading 3D Globe...

Upcoming Passes

Altitude History

Altitude vs Time

uPlot chart will show altitude changes over time

Two-Line Element Set

1 47823U 21018AN 25258.44449961 .00000635 00000-0 61515-4 0 9995
2 47823 53.0544 318.3167 0001268 91.1531 268.9603 15.06396113250188
Epoch: Sep 15, 2025 • Age: 14 hours

Current Status

Altitude 552.6 km
Velocity 7.59 km/s
Sub-Earth Point -18.42°S, 67.45°W
Launch Date Mar 11, 2021
Age 4.5 years
Type internet

Technical Details

Classification Payload
Mass 260.00 kg
Dry Mass 248.00 kg
Total Mass 260.00 kg
Length 0.20 m
Diameter 2.80 m
Span 9.00 m
Shape Box + pan
Manufacturer SPXS
Bus Type Starlink
Phase Status In Orbit
Owner/State SPXS/US

Large Constellations

Loading constellations...